C/2019 T4 ( ATLAS )

Japanese version
Home page
Updated on September 4, 2021

---------------------------------------------------------------------

* Profile

Discovery Date October 9, 2019
Magnitude 19.3 mag
Discoverer Asteroid Terrestrial-Impact Last Alert System (ATLAS) search program

* Pictures

* Orbital Elements

Epoch 2022 May 21.0 TT = JDT 2459720.5
T 2022 June  9.13790 TT                                 Rudenko
q   4.2424912            (2000.0)            P               Q
z  +0.0009895      Peri.  351.20003     -0.95992781     +0.05603688
 +/-0.0000010      Node   199.93918     -0.18195276     -0.86982900
e   0.9958022      Incl.   53.62860     -0.21314735     +0.49016056
From 561 observations 2019 Feb. 5-2021 May 2, mean residual 0".5.

* Finding Charts

* Magnitudes Graph

        m1 = -2.5 + 5 log d + 18.0 log r

---------------------------------------------------------------------

The orbital elements are published on M.P.E.C. 2021-J28.
The charts are made with StellaNavigator Ver.10 (AstroArts).
The magnitudes graphs are made with Comet for Windows.

---------------------------------------------------------------------

Copyright(C) Seiichi Yoshida (comet@aerith.net). All rights reserved.